This is the latest recevied weather packets stored in our database for station/object OK1TOM-6. If no packets are shown the sender has not sent any weather packets the latest 10 day(s).
| Time | Temp. | Humidity | Pressure | Rain* | Wind** | Luminosity | Snow |
|---|---|---|---|---|---|---|---|
| 1777658129 | 13.89° C | 53% | 1028.9 hPa | 0 mm | - | - | - |
| 1777657526 | 14.44° C | 52% | 1029 hPa | 0 mm | - | - | - |
| 1777656923 | 15° C | 49% | 1028.9 hPa | 0 mm | - | - | - |
| 1777656319 | 15.56° C | 45% | 1029 hPa | 0 mm | - | - | - |
| 1777655716 | 16.11° C | 42% | 1028.9 hPa | 0 mm | - | - | - |
| 1777655173 | 16.11° C | 41% | 1028.9 hPa | 0 mm | - | - | - |
| 1777654569 | 16.67° C | 41% | 1028.9 hPa | 0 mm | - | - | - |
| 1777653966 | 16.67° C | 40% | 1029 hPa | 0 mm | - | - | - |
| 1777653362 | 17.22° C | 38% | 1029.1 hPa | 0 mm | - | - | - |
| 1777652759 | 17.22° C | 38% | 1029.1 hPa | 0 mm | - | - | - |
| 1777652155 | 17.22° C | 36% | 1029.2 hPa | 0 mm | - | - | - |
| 1777651552 | 17.78° C | 36% | 1029.3 hPa | 0 mm | - | - | - |
| 1777650948 | 17.78° C | 36% | 1029.3 hPa | 0 mm | - | - | - |
| 1777650345 | 17.78° C | 37% | 1029.4 hPa | 0 mm | - | - | - |
| 1777649742 | 17.78° C | 35% | 1029.4 hPa | 0 mm | - | - | - |
| 1777649138 | 17.78° C | 34% | 1029.5 hPa | 0 mm | - | - | - |
| 1777648535 | 18.33° C | 35% | 1029.6 hPa | 0 mm | - | - | - |
| 1777647931 | 18.33° C | 36% | 1029.6 hPa | 0 mm | - | - | - |
| 1777647328 | 17.78° C | 35% | 1029.7 hPa | 0 mm | - | - | - |
| 1777646725 | 18.33° C | 35% | 1029.9 hPa | 0 mm | - | - | - |
| 1777646121 | 18.33° C | 35% | 1029.9 hPa | 0 mm | - | - | - |
| 1777645518 | 18.33° C | 35% | 1029.9 hPa | 0 mm | - | - | - |
| 1777644974 | 17.78° C | 36% | 1029.9 hPa | 0 mm | - | - | - |
| 1777644371 | 17.78° C | 35% | 1030.1 hPa | 0 mm | - | - | - |
| 1777643768 | 18.33° C | 36% | 1030.1 hPa | 0 mm | - | - | - |
* Rain latest hour (hover to see other rain measurements)
** Current wind speed in m/s (hover to see current wind gust speed)